Time,TemperatureF,DewpointF,PressureIn,WindDirection,WindDirectionDegrees,WindSpeedMPH,WindSpeedGustMPH,Humidity,HourlyPrecipIn,Conditions,Clouds,dailyrainin,SoftwareType,DateUTC
2013-09-23 00:12:00,45.2,43.0,30.10,SW,236,4.0,6.0,90,0.00,,,0.00,weatherlink.com 1.10,2013-09-23 04:12:00,
2013-09-23 00:27:00,44.0,41.0,30.10,WNW,299,2.0,4.0,90,0.00,,,0.00,weatherlink.com 1.10,2013-09-23 04:27:00,
2013-09-23 00:42:00,43.6,41.0,30.11,SW,217,2.0,5.0,91,0.00,,,0.00,weatherlink.com 1.10,2013-09-23 04:42:00,
2013-09-23 00:57:00,42.8,40.0,30.11,South,186,0.0,6.0,91,0.00,,,0.00,weatherlink.com 1.10,2013-09-23 04:57:00,
2013-09-23 01:12:00,42.2,40.0,30.11,SSW,206,4.0,4.0,92,0.00,,,0.00,weatherlink.com 1.10,2013-09-23 05:12:00,
2013-09-23 01:27:00,41.6,40.0,30.11,South,191,0.0,4.0,93,0.00,,,0.00,weatherlink.com 1.10,2013-09-23 05:27:00,
2013-09-23 01:42:00,41.0,39.0,30.12,South,173,1.0,5.0,93,0.00,,,0.00,weatherlink.com 1.10,2013-09-23 05:42:00,
2013-09-23 01:57:00,40.6,39.0,30.12,SSW,209,3.0,5.0,94,0.00,,,0.00,weatherlink.com 1.10,2013-09-23 05:57:00,
2013-09-23 02:12:00,39.9,38.0,30.12,SSW,196,3.0,4.0,93,0.00,,,0.00,weatherlink.com 1.10,2013-09-23 06:12:00,
2013-09-23 02:27:00,40.2,39.0,30.13,SSE,163,0.0,4.0,95,0.00,,,0.00,weatherlink.com 1.10,2013-09-23 06:27:00,
2013-09-23 02:42:00,39.7,38.0,30.13,SSE,168,3.0,3.0,93,0.00,,,0.00,weatherlink.com 1.10,2013-09-23 06:42:00,
2013-09-23 02:57:00,40.6,39.0,30.13,SSE,151,3.0,4.0,95,0.00,,,0.00,weatherlink.com 1.10,2013-09-23 06:57:00,
2013-09-23 03:12:00,42.5,41.0,30.14,SSE,155,3.0,5.0,93,0.00,,,0.00,weatherlink.com 1.10,2013-09-23 07:12:00,
2013-09-23 03:27:00,42.5,40.0,30.14,SSE,165,2.0,5.0,92,0.00,,,0.00,weatherlink.com 1.10,2013-09-23 07:27:00,
2013-09-23 03:42:00,41.8,40.0,30.14,SSE,162,2.0,3.0,92,0.00,,,0.00,weatherlink.com 1.10,2013-09-23 07:42:00,
2013-09-23 03:57:00,41.6,40.0,30.14,SSE,157,2.0,4.0,93,0.00,,,0.00,weatherlink.com 1.10,2013-09-23 07:57:00,
2013-09-23 04:12:00,41.7,40.0,30.15,SSE,155,3.0,4.0,92,0.00,,,0.00,weatherlink.com 1.10,2013-09-23 08:12:00,
2013-09-23 04:27:00,42.0,40.0,30.15,SSE,150,2.0,4.0,92,0.00,,,0.00,weatherlink.com 1.10,2013-09-23 08:27:00,
2013-09-23 04:42:00,41.5,39.0,30.15,SSE,158,2.0,4.0,92,0.00,,,0.00,weatherlink.com 1.10,2013-09-23 08:42:00,
2013-09-23 04:57:00,40.4,38.0,30.15,SSE,152,2.0,3.0,92,0.00,,,0.00,weatherlink.com 1.10,2013-09-23 08:57:00,
2013-09-23 05:12:00,40.6,39.0,30.16,SSE,157,2.0,4.0,93,0.00,,,0.00,weatherlink.com 1.10,2013-09-23 09:12:00,
2013-09-23 05:27:00,40.6,39.0,30.16,SSE,165,2.0,3.0,93,0.00,,,0.00,weatherlink.com 1.10,2013-09-23 09:27:00,
2013-09-23 05:42:00,40.3,39.0,30.16,South,173,2.0,3.0,94,0.00,,,0.00,weatherlink.com 1.10,2013-09-23 09:42:00,
2013-09-23 05:57:00,40.2,39.0,30.17,SSE,159,3.0,4.0,94,0.00,,,0.00,weatherlink.com 1.10,2013-09-23 09:57:00,
2013-09-23 06:12:00,40.0,38.0,30.17,South,172,2.0,4.0,93,0.00,,,0.00,weatherlink.com 1.10,2013-09-23 10:12:00,
2013-09-23 06:27:00,39.3,38.0,30.17,South,179,1.0,3.0,94,0.00,,,0.00,weatherlink.com 1.10,2013-09-23 10:27:00,
2013-09-23 06:42:00,39.4,38.0,30.18,South,175,0.0,3.0,94,0.00,,,0.00,weatherlink.com 1.10,2013-09-23 10:42:00,
2013-09-23 06:57:00,38.9,38.0,30.18,South,186,1.0,4.0,95,0.00,,,0.00,weatherlink.com 1.10,2013-09-23 10:57:00,
2013-09-23 07:12:00,38.8,37.0,30.19,South,178,1.0,3.0,94,0.00,,,0.00,weatherlink.com 1.10,2013-09-23 11:12:00,
2013-09-23 07:27:00,39.2,38.0,30.20,South,179,0.0,2.0,95,0.00,,,0.00,weatherlink.com 1.10,2013-09-23 11:27:00,
2013-09-23 07:42:00,39.6,38.0,30.20,SSE,167,1.0,3.0,95,0.00,,,0.00,weatherlink.com 1.10,2013-09-23 11:42:00,
2013-09-23 07:58:00,41.3,40.0,30.21,SSE,159,2.0,3.0,93,0.00,,,0.00,weatherlink.com 1.10,2013-09-23 11:58:00,
2013-09-23 08:13:00,42.7,40.0,30.21,SSE,155,2.0,4.0,91,0.00,,,0.00,weatherlink.com 1.10,2013-09-23 12:13:00,
2013-09-23 08:28:00,44.2,42.0,30.21,SE,142,3.0,4.0,90,0.00,,,0.00,weatherlink.com 1.10,2013-09-23 12:28:00,
2013-09-23 08:43:00,45.8,43.0,30.21,SE,128,3.0,5.0,88,0.00,,,0.00,weatherlink.com 1.10,2013-09-23 12:43:00,
2013-09-23 08:58:00,47.4,43.0,30.22,SE,136,4.0,5.0,85,0.00,,,0.00,weatherlink.com 1.10,2013-09-23 12:58:00,
2013-09-23 09:13:00,48.7,44.0,30.22,ESE,116,3.0,5.0,84,0.00,,,0.00,weatherlink.com 1.10,2013-09-23 13:13:00,
2013-09-23 09:28:00,49.7,44.0,30.22,SE,124,3.0,5.0,80,0.00,,,0.00,weatherlink.com 1.10,2013-09-23 13:28:00,
2013-09-23 09:43:00,50.3,43.0,30.22,ESE,102,7.0,8.0,77,0.00,,,0.00,weatherlink.com 1.10,2013-09-23 13:43:00,
2013-09-23 09:58:00,50.4,43.0,30.22,ESE,107,5.0,9.0,77,0.00,,,0.00,weatherlink.com 1.10,2013-09-23 13:58:00,
2013-09-23 10:13:00,50.8,44.0,30.23,ESE,103,4.0,10.0,77,0.00,,,0.00,weatherlink.com 1.10,2013-09-23 14:13:00,
2013-09-23 10:28:00,51.3,44.0,30.23,NE,55,4.0,7.0,75,0.00,,,0.00,weatherlink.com 1.10,2013-09-23 14:28:00,
2013-09-23 10:43:00,51.3,44.0,30.22,ENE,78,9.0,9.0,76,0.00,,,0.00,weatherlink.com 1.10,2013-09-23 14:43:00,
2013-09-23 10:58:00,51.8,44.0,30.23,ENE,78,3.0,9.0,75,0.00,,,0.00,weatherlink.com 1.10,2013-09-23 14:58:00,
2013-09-23 11:13:00,51.9,44.0,30.23,NE,49,6.0,9.0,74,0.00,,,0.00,weatherlink.com 1.10,2013-09-23 15:13:00,
2013-09-23 11:28:00,52.4,45.0,30.23,ENE,58,8.0,9.0,75,0.00,,,0.00,weatherlink.com 1.10,2013-09-23 15:28:00,
2013-09-23 11:43:00,52.9,45.0,30.23,ENE,77,3.0,9.0,74,0.00,,,0.00,weatherlink.com 1.10,2013-09-23 15:43:00,
2013-09-23 11:58:00,53.0,45.0,30.23,North,355,5.0,10.0,74,0.00,,,0.00,weatherlink.com 1.10,2013-09-23 15:58:00,
2013-09-23 12:13:00,53.4,45.0,30.23,NNE,24,4.0,9.0,72,0.00,,,0.00,weatherlink.com 1.10,2013-09-23 16:13:00,
2013-09-23 12:28:00,53.3,45.0,30.23,NE,37,7.0,9.0,73,0.00,,,0.00,weatherlink.com 1.10,2013-09-23 16:28:00,
2013-09-23 12:43:00,53.6,45.0,30.23,ENE,64,4.0,8.0,72,0.00,,,0.00,weatherlink.com 1.10,2013-09-23 16:43:00,
2013-09-23 12:58:00,53.7,44.0,30.22,North,5,5.0,8.0,71,0.00,,,0.00,weatherlink.com 1.10,2013-09-23 16:58:00,
2013-09-23 13:13:00,53.6,44.0,30.22,NNE,27,6.0,8.0,71,0.00,,,0.00,weatherlink.com 1.10,2013-09-23 17:13:00,
2013-09-23 13:28:00,53.8,45.0,30.22,NE,36,6.0,8.0,71,0.00,,,0.00,weatherlink.com 1.10,2013-09-23 17:28:00,
2013-09-23 13:43:00,53.8,45.0,30.21,ENE,58,3.0,7.0,71,0.00,,,0.00,weatherlink.com 1.10,2013-09-23 17:43:00,
2013-09-23 13:58:00,54.0,44.0,30.21,NE,54,3.0,7.0,70,0.00,,,0.00,weatherlink.com 1.10,2013-09-23 17:58:00,
2013-09-23 14:13:00,54.1,45.0,30.21,NNE,28,5.0,8.0,70,0.00,,,0.00,weatherlink.com 1.10,2013-09-23 18:13:00,
2013-09-23 14:28:00,54.2,44.0,30.20,NNE,26,4.0,8.0,68,0.00,,,0.00,weatherlink.com 1.10,2013-09-23 18:28:00,
2013-09-23 14:43:00,54.6,43.0,30.20,NNE,17,1.0,7.0,66,0.00,,,0.00,weatherlink.com 1.10,2013-09-23 18:43:00,
2013-09-23 14:58:00,54.8,44.0,30.19,North,5,5.0,7.0,67,0.00,,,0.00,weatherlink.com 1.10,2013-09-23 18:58:00,
2013-09-23 15:13:00,54.9,44.0,30.19,NNE,12,4.0,7.0,66,0.00,,,0.00,weatherlink.com 1.10,2013-09-23 19:13:00,
2013-09-23 15:28:00,55.4,44.0,30.19,NNE,28,2.0,6.0,65,0.00,,,0.00,weatherlink.com 1.10,2013-09-23 19:28:00,
2013-09-23 15:43:00,55.4,43.0,30.18,NNE,26,1.0,7.0,64,0.00,,,0.00,weatherlink.com 1.10,2013-09-23 19:43:00,
2013-09-23 15:58:00,55.0,43.0,30.18,NE,36,4.0,5.0,64,0.00,,,0.00,weatherlink.com 1.10,2013-09-23 19:58:00,
2013-09-23 16:13:00,55.2,43.0,30.17,NE,56,3.0,6.0,64,0.00,,,0.00,weatherlink.com 1.10,2013-09-23 20:13:00,
2013-09-23 16:28:00,55.7,43.0,30.17,North,360,3.0,5.0,63,0.00,,,0.00,weatherlink.com 1.10,2013-09-23 20:28:00,
2013-09-23 16:43:00,55.6,43.0,30.17,NNE,22,3.0,6.0,63,0.00,,,0.00,weatherlink.com 1.10,2013-09-23 20:43:00,
2013-09-23 16:58:00,55.9,44.0,30.17,NE,44,0.0,5.0,64,0.00,,,0.00,weatherlink.com 1.10,2013-09-23 20:58:00,
2013-09-23 17:13:00,55.7,44.0,30.17,NNE,21,1.0,5.0,64,0.00,,,0.00,weatherlink.com 1.10,2013-09-23 21:13:00,
2013-09-23 17:28:00,55.9,43.0,30.17,NNE,17,1.0,5.0,62,0.00,,,0.00,weatherlink.com 1.10,2013-09-23 21:28:00,
2013-09-23 17:43:00,55.8,44.0,30.17,NNE,19,2.0,4.0,65,0.00,,,0.00,weatherlink.com 1.10,2013-09-23 21:43:00,
2013-09-23 17:58:00,56.2,44.0,30.16,North,11,3.0,3.0,63,0.00,,,0.00,weatherlink.com 1.10,2013-09-23 21:58:00,
2013-09-23 18:13:00,56.0,43.0,30.16,NE,56,0.0,4.0,63,0.00,,,0.00,weatherlink.com 1.10,2013-09-23 22:13:00,
2013-09-23 18:28:00,55.6,44.0,30.16,ENE,78,2.0,3.0,66,0.00,,,0.00,weatherlink.com 1.10,2013-09-23 22:28:00,
2013-09-23 18:43:00,54.8,45.0,30.16,East,86,1.0,3.0,70,0.00,,,0.00,weatherlink.com 1.10,2013-09-23 22:43:00,
2013-09-23 18:58:00,53.4,45.0,30.16,East,100,3.0,5.0,73,0.00,,,0.00,weatherlink.com 1.10,2013-09-23 22:58:00,
2013-09-23 19:13:00,51.9,45.0,30.15,East,100,0.0,1.0,78,0.00,,,0.00,weatherlink.com 1.10,2013-09-23 23:13:00,
2013-09-23 19:28:00,49.7,45.0,30.15,East,100,3.0,3.0,83,0.00,,,0.00,weatherlink.com 1.10,2013-09-23 23:28:00,
2013-09-23 19:44:00,47.3,44.0,30.15,ESE,107,2.0,3.0,87,0.00,,,0.00,weatherlink.com 1.10,2013-09-23 23:44:00,
2013-09-23 19:59:00,46.0,43.0,30.15,ESE,111,0.0,3.0,89,0.00,,,0.00,weatherlink.com 1.10,2013-09-23 23:59:00,
2013-09-23 20:14:00,44.9,42.0,30.15,SW,217,0.0,4.0,90,0.00,,,0.00,weatherlink.com 1.10,2013-09-24 00:14:00,
2013-09-23 20:29:00,43.8,42.0,30.15,SSW,200,3.0,3.0,92,0.00,,,0.00,weatherlink.com 1.10,2013-09-24 00:29:00,
2013-09-23 20:44:00,43.2,41.0,30.16,SSW,196,2.0,4.0,92,0.00,,,0.00,weatherlink.com 1.10,2013-09-24 00:44:00,
2013-09-23 20:59:00,42.6,41.0,30.15,South,186,1.0,3.0,93,0.00,,,0.00,weatherlink.com 1.10,2013-09-24 00:59:00,
2013-09-23 21:14:00,42.2,40.0,30.16,South,186,2.0,3.0,93,0.00,,,0.00,weatherlink.com 1.10,2013-09-24 01:14:00,
2013-09-23 21:29:00,42.0,40.0,30.16,SSW,195,1.0,4.0,93,0.00,,,0.00,weatherlink.com 1.10,2013-09-24 01:29:00,
2013-09-23 21:44:00,41.6,40.0,30.16,SSW,195,3.0,3.0,94,0.00,,,0.00,weatherlink.com 1.10,2013-09-24 01:44:00,
2013-09-23 21:59:00,41.1,40.0,30.16,SSW,195,2.0,3.0,94,0.00,,,0.00,weatherlink.com 1.10,2013-09-24 01:59:00,
2013-09-23 22:14:00,41.0,39.0,30.16,SSW,194,3.0,4.0,94,0.00,,,0.00,weatherlink.com 1.10,2013-09-24 02:14:00,
2013-09-23 22:29:00,41.6,40.0,30.16,SSW,200,4.0,5.0,95,0.00,,,0.00,weatherlink.com 1.10,2013-09-24 02:29:00,
2013-09-23 22:44:00,41.1,40.0,30.16,SSW,205,3.0,4.0,94,0.00,,,0.00,weatherlink.com 1.10,2013-09-24 02:44:00,
2013-09-23 22:59:00,40.8,39.0,30.16,SSW,200,2.0,4.0,94,0.00,,,0.00,weatherlink.com 1.10,2013-09-24 02:59:00,
2013-09-23 23:14:00,40.7,39.0,30.16,SSW,202,2.0,4.0,95,0.00,,,0.00,weatherlink.com 1.10,2013-09-24 03:14:00,
2013-09-23 23:29:00,40.0,39.0,30.16,SSW,200,3.0,3.0,95,0.00,,,0.00,weatherlink.com 1.10,2013-09-24 03:29:00,
2013-09-23 23:44:00,39.6,38.0,30.16,SSW,202,2.0,4.0,95,0.00,,,0.00,weatherlink.com 1.10,2013-09-24 03:44:00,
2013-09-23 23:59:00,39.5,38.0,30.16,SSW,201,2.0,3.0,95,0.00,,,0.00,weatherlink.com 1.10,2013-09-24 03:59:00,